Wind_Speed
33 33 32 32 32 33 32 31 29 27 27 27 28 27 25 23 22 22 23 24 25 26 26 25 25 23 22 21 20 20 21 21 20 19 18 19 19 18 18 16 15 14 11
36 36 36 35 35 35 35 34 33 32 32 31 32 33 32 29 28 26 25 26 27 29 30 29 28 26 25 24 23 22 22 21 21 21 20 20 20 20 19 19 18 17 15
33 34 35 35 36 36 36 35 33 34 36 36 36 37 37 36 36 34 30 28 28 31 33 33 32 30 27 26 25 25 25 23 22 22 22 21 21 22 21 20 19 18 17
35 35 36 35 36 38 38 37 36 36 38 39 40 41 42 42 41 38 34 32 31 32 35 37 37 35 31 29 29 28 27 26 24 23 23 23 23 23 23 22 20 19 18
38 38 39 39 40 41 41 40 39 38 39 42 43 42 43 44 44 42 38 35 33 34 37 39 40 38 36 34 33 31 28 27 27 25 24 25 25 25 25 24 22 20 19
41 42 42 43 43 44 43 42 41 41 42 43 45 44 43 43 43 41 37 33 33 35 37 39 40 40 38 37 36 34 30 28 27 26 26 27 28 28 28 27 25 23 22
42 42 42 42 42 43 43 43 43 43 44 45 46 45 43 40 39 39 38 36 36 38 37 37 38 39 38 38 37 37 32 28 28 30 30 30 29 30 30 30 28 26 26
39 40 40 40 40 40 41 42 42 42 42 43 44 43 41 40 39 41 42 41 39 38 37 36 38 38 36 37 38 38 33 29 29 31 31 30 29 30 31 31 31 30 29
35 36 37 38 39 40 41 42 43 43 42 43 43 43 42 41 39 38 39 39 37 34 33 34 36 36 34 35 37 35 30 28 29 31 31 29 28 30 30 30 30 29 30
36 36 37 39 41 42 43 43 43 44 45 45 46 45 44 42 40 36 35 35 33 30 31 33 34 34 32 34 35 33 30 29 30 30 27 26 26 28 28 29 29 30 30
40 40 41 42 43 43 43 42 43 44 45 46 47 47 46 42 39 37 35 33 30 29 30 33 34 32 32 34 35 34 33 33 31 28 25 23 24 25 27 28 26 27 27
41 41 42 42 43 43 43 43 44 45 46 47 48 48 45 42 39 36 33 30 28 29 30 32 33 33 33 34 35 35 35 33 31 28 26 24 23 23 24 25 25 25 26
41 41 42 42 43 44 45 45 45 45 46 47 47 46 44 41 37 34 31 29 28 28 28 29 31 32 33 35 35 35 33 32 29 28 26 26 25 24 24 24 25 25 25
42 42 42 43 43 45 46 47 46 45 45 46 45 43 41 37 33 30 30 30 31 32 29 28 29 31 33 35 34 34 32 30 29 28 27 26 25 25 26 27 28 29 30
45 44 44 43 44 45 45 43 41 39 41 41 40 38 35 31 26 25 26 28 31 35 34 31 31 32 33 32 30 30 30 30 29 28 27 27 26 27 27 28 30 31 32
44 44 44 44 44 42 39 35 33 32 32 32 31 29 27 24 22 24 27 30 34 36 36 32 30 29 27 26 27 29 30 30 29 28 29 28 28 27 27 28 30 31 32
41 40 40 40 38 36 31 26 23 21 22 22 22 22 21 22 26 29 30 32 32 31 30 26 24 21 22 24 26 27 29 29 29 29 31 30 30 30 31 32 33 34 34
34 35 34 32 31 28 23 19 17 17 17 20 21 23 26 28 29 29 28 26 23 20 17 15 17 20 22 24 25 26 27 27 28 29 30 29 30 31 32 33 35 36 36
28 28 27 26 25 22 20 18 18 18 16 16 17 18 19 20 22 21 20 18 16 14 15 18 19 21 22 24 25 25 25 26 27 28 29 29 30 31 33 34 36 37 38
22 21 22 21 19 19 19 20 21 20 18 17 16 15 14 14 15 15 16 15 14 16 18 20 20 20 22 23 24 24 26 26 28 29 31 31 32 34 36 37 37 38 39
19 19 19 18 16 16 18 20 21 21 20 19 17 15 14 13 13 14 15 15 16 18 19 20 20 20 21 22 24 26 27 29 30 32 32 33 35 36 37 37 38 39 40
17 17 16 15 14 12 14 16 16 16 16 16 16 15 14 13 12 13 14 15 15 17 18 19 20 20 21 23 25 27 27 28 29 31 33 35 38 39 40 41 41 42 42
18 16 15 14 13 12 10 12 13 14 15 16 16 15 15 14 14 14 14 14 15 15 16 18 19 20 21 22 22 22 22 24 26 28 30 32 34 36 38 40 41 43 44
18 16 15 15 15 13 11 11 13 14 15 16 16 16 15 14 14 14 14 13 13 13 13 14 15 15 16 16 18 20 24 27 30 32 34 36 38 40 41 41 42 42 42
19 17 16 15 15 14 13 12 12 13 13 14 14 13 11 11 11 12 12 11 11 10 9 9 10 13 15 18 21 24 27 30 33 35 37 38 39 41 43 43 42 41 40
20 17 16 15 16 16 14 11 10 11 11 11 11 10 9 9 9 9 9 9 7 6 7 8 11 14 18 21 25 28 30 32 34 34 35 36 35 36 37 38 37 36 36
Wind_Direction
289 289 286 286 285 285 285 285 284 280 281 284 286 286 288 294 298 291 286 283 277 273 272 275 279 285 288 289 288 283 273 265 263 265 267 267 267 267 264 262 263 264 268
288 287 285 283 281 280 281 282 283 281 279 281 284 285 284 284 286 286 279 275 274 271 266 264 267 275 283 287 287 284 279 271 264 262 263 265 265 268 269 264 260 261 264
278 277 278 280 279 279 279 280 279 278 279 281 284 285 285 284 286 285 278 272 271 271 269 263 260 264 271 280 283 283 280 275 269 264 262 261 263 266 272 272 264 259 261
275 274 276 277 278 279 279 279 277 274 276 279 283 284 284 285 286 285 282 280 276 271 267 263 258 258 263 270 277 280 280 278 274 270 267 264 263 264 267 270 269 264 262
275 274 274 275 275 277 278 278 278 276 276 279 282 284 285 286 286 284 281 280 278 272 264 257 254 254 257 263 270 275 279 280 276 271 269 267 264 262 262 262 267 267 265
277 274 273 272 273 274 277 277 278 277 276 277 279 282 284 287 289 284 277 276 276 276 268 256 252 251 253 258 265 273 275 278 275 273 272 269 266 263 261 260 262 263 264
276 275 274 273 273 274 275 277 278 278 278 279 280 282 284 289 290 283 278 279 281 280 273 259 252 250 251 256 263 270 270 273 274 275 274 271 269 266 263 262 262 261 263
277 276 275 275 275 276 277 278 278 278 279 280 281 282 285 288 289 286 283 282 280 277 272 260 250 249 251 254 261 265 265 270 275 275 272 269 268 266 263 261 262 264 265
280 278 277 279 280 281 280 279 279 279 279 279 281 282 283 284 286 284 282 280 277 272 266 257 250 247 249 253 258 260 263 272 277 274 269 265 264 264 263 263 263 261 262
284 282 281 282 284 285 284 282 280 279 279 278 279 281 283 284 282 280 279 277 270 262 256 252 248 245 246 249 251 253 261 275 281 274 266 263 262 263 263 264 263 260 259
284 282 282 283 285 285 285 283 282 281 280 279 278 279 280 280 279 279 277 273 264 253 247 245 244 242 242 245 247 249 259 275 279 269 262 258 259 260 264 262 257 258 260
282 283 283 284 284 284 285 285 284 282 280 277 277 277 276 276 275 273 271 269 261 251 243 240 237 239 243 247 249 254 263 271 271 265 260 255 254 258 262 259 257 259 261
284 285 286 287 287 286 285 285 284 281 277 274 273 273 275 275 273 270 266 266 260 252 245 237 234 239 244 248 252 258 264 266 264 263 259 256 253 253 256 258 257 258 262
286 287 287 289 289 287 286 286 283 279 273 269 268 268 271 272 269 263 261 262 257 251 243 233 232 237 243 250 255 259 263 263 261 260 258 258 257 255 255 257 259 261 261
287 287 287 288 288 288 288 287 283 275 268 264 262 264 266 264 258 253 255 255 251 248 243 238 239 243 246 251 257 261 263 263 261 259 257 258 258 257 256 256 258 259 260
289 289 288 288 289 288 287 283 277 271 266 260 257 256 253 247 240 243 250 251 249 250 250 249 248 249 250 253 257 260 261 261 256 256 258 257 256 255 254 254 255 256 258
290 288 287 288 288 287 284 276 270 265 255 246 242 237 232 229 232 238 243 245 249 253 256 256 255 253 254 256 257 259 261 260 258 258 257 258 259 259 258 256 256 256 256
293 291 290 289 287 282 274 262 252 242 232 224 216 213 215 217 221 227 233 239 243 249 253 252 254 254 257 259 262 263 264 262 261 260 258 258 259 260 260 259 258 257 255
298 297 297 293 285 270 258 242 229 218 209 200 197 203 208 216 224 231 234 234 236 242 248 252 255 259 262 263 264 265 266 265 263 262 261 259 259 260 261 261 261 260 258
299 302 305 300 284 264 249 234 222 212 210 204 208 215 228 240 247 246 240 236 238 244 250 255 258 260 262 263 264 266 267 266 266 265 265 265 265 264 264 264 263 263 262
301 303 311 308 290 264 245 232 225 223 224 225 227 231 239 245 249 248 243 240 242 248 255 260 261 262 264 266 267 268 268 269 269 268 268 268 269 268 267 266 266 265 264
304 304 308 309 297 272 245 235 233 233 232 230 226 228 233 235 239 242 244 246 249 253 258 261 264 267 269 271 272 272 273 274 275 275 275 275 275 274 272 270 268 266 265
301 303 300 296 293 279 259 243 238 237 234 235 235 233 232 233 235 239 244 247 250 253 257 263 267 271 273 274 275 278 280 281 281 281 280 279 278 276 275 273 270 267 265
294 298 298 291 283 280 269 257 247 242 240 240 238 235 234 235 237 241 242 243 246 250 257 265 271 274 276 278 281 285 288 290 289 288 285 282 279 277 274 272 270 268 266
287 292 295 292 283 277 269 259 249 246 247 240 234 231 232 232 232 232 233 237 244 254 265 272 280 288 294 298 299 299 298 296 294 292 289 286 282 278 273 270 268 266 265
279 282 286 286 279 272 265 257 250 247 241 235 230 225 221 219 222 227 229 229 234 250 268 284 298 308 311 311 309 307 305 304 303 302 298 294 289 282 276 271 267 264 262
Height
5891 5890 5888 5886 5884 5883 5882 5881 5880 5879 5878 5876 5875 5875 5875 5876 5875 5874 5873 5872 5872 5872 5873 5874 5875 5876 5875 5874 5873 5872 5871 5869 5869 5869 5869 5870 5870 5870 5870 5870 5870 5870 5871
5882 5881 5879 5878 5877 5875 5874 5873 5871 5870 5869 5869 5868 5867 5867 5868 5869 5868 5867 5866 5865 5865 5866 5868 5869 5869 5869 5869 5869 5869 5868 5866 5865 5864 5865 5865 5866 5866 5866 5866 5866 5866 5867
5872 5871 5870 5869 5867 5866 5865 5864 5863 5862 5861 5860 5859 5859 5859 5859 5860 5859 5859 5858 5857 5856 5857 5860 5861 5862 5862 5863 5864 5864 5864 5863 5861 5860 5860 5861 5861 5862 5863 5863 5862 5863 5863
5862 5861 5860 5859 5857 5856 5855 5854 5854 5852 5851 5851 5850 5849 5849 5848 5849 5849 5849 5849 5848 5848 5848 5850 5852 5853 5855 5856 5857 5858 5857 5857 5856 5856 5855 5856 5856 5857 5858 5858 5858 5859 5860
5853 5853 5851 5849 5848 5846 5845 5844 5843 5842 5842 5841 5840 5840 5839 5837 5838 5839 5840 5839 5839 5838 5838 5840 5842 5844 5846 5848 5850 5851 5850 5850 5850 5850 5850 5850 5850 5851 5852 5852 5854 5854 5855
5842 5841 5840 5839 5838 5835 5834 5833 5832 5832 5831 5830 5829 5830 5830 5829 5828 5828 5829 5829 5829 5827 5827 5829 5832 5835 5838 5839 5841 5843 5843 5843 5844 5844 5843 5843 5843 5844 5845 5846 5848 5849 5850
5831 5829 5829 5829 5828 5826 5824 5823 5822 5821 5821 5820 5819 5819 5820 5819 5818 5818 5818 5818 5817 5816 5816 5818 5822 5825 5829 5830 5832 5833 5834 5835 5837 5837 5837 5836 5836 5837 5838 5840 5842 5843 5844
5821 5819 5818 5818 5817 5816 5815 5814 5812 5811 5810 5809 5808 5807 5808 5810 5810 5809 5808 5807 5806 5805 5805 5808 5811 5815 5818 5821 5823 5825 5826 5828 5829 5829 5828 5828 5829 5830 5831 5833 5835 5836 5837
5812 5811 5809 5808 5807 5806 5805 5804 5803 5801 5800 5799 5798 5798 5797 5798 5800 5800 5798 5797 5796 5795 5796 5797 5801 5805 5809 5812 5814 5817 5819 5819 5820 5821 5821 5820 5820 5822 5823 5825 5827 5829 5830
5803 5801 5800 5798 5797 5795 5793 5792 5791 5790 5790 5789 5788 5788 5788 5787 5788 5789 5790 5788 5787 5786 5787 5789 5792 5796 5801 5804 5807 5809 5811 5811 5811 5812 5812 5812 5812 5814 5816 5818 5819 5821 5822
5794 5792 5790 5789 5787 5785 5783 5781 5780 5778 5778 5777 5777 5777 5776 5777 5777 5778 5779 5779 5777 5778 5779 5780 5784 5789 5793 5796 5799 5802 5803 5803 5803 5804 5805 5804 5805 5806 5809 5810 5811 5813 5814
5784 5782 5780 5778 5776 5774 5772 5771 5769 5767 5766 5765 5765 5765 5765 5766 5767 5768 5769 5769 5769 5770 5771 5773 5776 5780 5784 5788 5791 5792 5794 5794 5795 5796 5797 5797 5797 5799 5801 5802 5804 5805 5807
5773 5771 5768 5766 5764 5763 5761 5759 5757 5755 5753 5752 5752 5752 5753 5754 5756 5758 5759 5760 5760 5762 5763 5765 5768 5772 5775 5778 5781 5783 5785 5786 5787 5788 5789 5790 5790 5791 5793 5794 5796 5797 5798
5762 5759 5756 5754 5752 5750 5748 5746 5743 5741 5740 5739 5740 5741 5742 5744 5746 5748 5750 5751 5753 5755 5756 5756 5758 5762 5765 5769 5772 5775 5777 5778 5779 5780 5781 5782 5783 5783 5784 5786 5788 5789 5790
5749 5746 5744 5742 5740 5737 5735 5732 5730 5728 5727 5728 5729 5732 5734 5735 5737 5739 5741 5743 5746 5748 5748 5748 5750 5753 5756 5760 5763 5765 5767 5769 5770 5771 5772 5773 5774 5775 5776 5777 5778 5780 5781
5736 5734 5732 5730 5728 5725 5723 5721 5719 5717 5717 5718 5720 5723 5725 5727 5729 5731 5733 5736 5738 5740 5740 5741 5743 5746 5749 5752 5755 5756 5758 5760 5761 5762 5763 5765 5766 5766 5767 5768 5769 5770 5771
5725 5722 5720 5718 5716 5714 5712 5711 5710 5709 5709 5710 5712 5715 5717 5720 5723 5725 5727 5729 5730 5731 5733 5735 5737 5739 5742 5744 5747 5749 5750 5751 5752 5753 5754 5756 5756 5756 5758 5759 5760 5760 5760
5715 5712 5709 5707 5706 5705 5704 5704 5703 5704 5704 5706 5707 5709 5711 5714 5715 5717 5719 5721 5723 5725 5727 5730 5731 5734 5736 5738 5740 5741 5742 5742 5743 5743 5744 5745 5746 5747 5748 5749 5749 5750 5750
5708 5704 5702 5700 5698 5697 5698 5698 5699 5699 5700 5701 5703 5705 5707 5709 5710 5712 5714 5716 5718 5720 5722 5724 5726 5728 5730 5732 5733 5734 5734 5735 5734 5734 5734 5735 5735 5736 5737 5737 5737 5738 5738
5703 5700 5697 5694 5693 5692 5693 5694 5694 5694 5695 5696 5698 5700 5702 5704 5706 5708 5710 5712 5714 5716 5717 5718 5720 5722 5723 5724 5725 5726 5727 5727 5727 5727 5726 5725 5725 5725 5725 5725 5724 5724 5724
5698 5696 5693 5690 5688 5687 5688 5688 5689 5690 5691 5692 5694 5696 5697 5700 5702 5705 5707 5709 5711 5712 5714 5715 5716 5717 5717 5718 5718 5719 5719 5718 5718 5717 5716 5716 5715 5714 5713 5712 5711 5711 5711
5693 5691 5689 5686 5684 5683 5683 5684 5684 5685 5686 5688 5690 5692 5694 5696 5698 5701 5704 5706 5707 5709 5709 5711 5711 5712 5712 5711 5711 5711 5710 5709 5708 5707 5706 5705 5703 5702 5701 5700 5699 5698 5698
5688 5686 5684 5683 5682 5681 5680 5680 5681 5682 5684 5685 5687 5689 5690 5693 5695 5698 5700 5702 5703 5704 5706 5706 5706 5706 5706 5704 5704 5703 5702 5700 5698 5696 5695 5693 5691 5690 5689 5687 5686 5686 5685
5682 5680 5679 5679 5679 5678 5677 5677 5678 5679 5681 5683 5684 5686 5688 5690 5692 5694 5696 5698 5699 5700 5701 5700 5700 5700 5699 5698 5697 5696 5694 5691 5689 5686 5684 5682 5679 5677 5675 5674 5673 5673 5672
5676 5675 5674 5674 5674 5674 5674 5674 5675 5676 5678 5680 5681 5683 5685 5687 5689 5691 5692 5694 5695 5695 5695 5695 5695 5694 5693 5692 5690 5688 5685 5682 5679 5675 5671 5668 5665 5662 5660 5659 5658 5658 5658
5670 5669 5669 5669 5670 5671 5671 5671 5671 5673 5675 5677 5679 5680 5682 5684 5686 5687 5689 5690 5691 5691 5691 5691 5690 5689 5687 5685 5683 5679 5675 5671 5667 5662 5657 5654 5651 5648 5645 5644 5643 5643 5644